Defiance, OH

2:43 PM EDT on July 20, 2017 (GMT -0400)
Defiance Memorial

Weather History for KDFI - June, 2012

Change the Weather History Date:

Sunday, June 10, 2012

  Actual Average Record
Temperature  
Mean Temperature 74 °F -  
Max Temperature 91 °F 80 °F 93 °F (1968)
Min Temperature 57 °F 55 °F 41 °F (1972)
Cooling Degree Days 9    
Growing Degree Days 24 (Base 50)    
Moisture  
Dew Point 53 °F    
Average Humidity 45    
Maximum Humidity 81    
Minimum Humidity 24    
Precipitation  
Precipitation 0.00 in - - ()
Sea Level Pressure  
Sea Level Pressure 30.00 in    
Wind  
Wind Speed 3 mph (SSE)    
Max Wind Speed 10 mph    
Max Gust Speed 20 mph    
Visibility 10 miles    
Events      
Averages and records for this station are not official NWS values.
T = Trace of Precipitation, MM = Missing Value Source: NWS Daily Summary

Daily Weather History Graph

Daily Weather History Graph

Search for Another Location

Airport or City:

Trip Planner

Search our weather history database for the weather conditions in past years. The results will help you decide how hot, cold, wet, or windy it might be!

Date:

Astronomy

Jun. 10, 2012 Rise Set
Actual Time 6:04 AM EDT 9:10 PM EDT
Civil Twilight 5:30 AM EDT 9:44 PM EDT
Nautical Twilight 4:47 AM EDT 10:27 PM EDT
Astronomical Twilight 3:56 AM EDT 11:18 PM EDT
Moon 12:59 AM EDT (6/10) 12:55 PM EDT (6/10)
Length of Visible Light 16h 14m
Length of Day
15h 06m
Waning Gibbous, 58% of the Moon is Illuminated
Jun 10
Waning Gibbous
Jun 11
Last Quarter
Jun 19
New
Jun 26
First Quarter
Jul 3
Full

Hourly Weather History & Observations

Time (EDT) Temp. Heat Index Dew Point Humidity Pressure Visibility Wind Dir Wind Speed Gust Speed Precip Events Conditions
12:53 AM 68.0 °F - 50.0 °F 52% 29.97 in 10.0 mi Calm Calm - N/A   Clear
1:53 AM 64.9 °F - 51.1 °F 61% 29.98 in 10.0 mi Calm Calm - N/A   Clear
2:53 AM 63.0 °F - 51.1 °F 65% 29.98 in 10.0 mi Calm Calm - N/A   Clear
3:53 AM 60.1 °F - 52.0 °F 75% 29.98 in 10.0 mi Calm Calm - N/A   Clear
4:53 AM 59.0 °F - 52.0 °F 78% 29.99 in 10.0 mi Calm Calm - N/A   Clear
5:53 AM 57.9 °F - 52.0 °F 81% 30.01 in 10.0 mi Calm Calm - N/A   Clear
6:53 AM 59.0 °F - 53.1 °F 81% 30.03 in 10.0 mi Calm Calm - N/A   Clear
7:53 AM 66.9 °F - 55.0 °F 66% 30.04 in 10.0 mi Calm Calm - N/A   Clear
8:53 AM 75.0 °F - 55.9 °F 51% 30.04 in 10.0 mi South 3.5 mph - N/A   Clear
9:53 AM 81.0 °F 80.8 °F 55.9 °F 42% 30.03 in 10.0 mi Variable 4.6 mph - N/A   Clear
10:53 AM 84.9 °F 83.6 °F 55.0 °F 36% 30.04 in 10.0 mi South 5.8 mph - N/A   Clear
11:53 AM 84.9 °F 83.7 °F 55.9 °F 37% 30.04 in 10.0 mi SSW 5.8 mph - N/A   Mostly Cloudy
12:53 PM 88.0 °F 85.9 °F 54.0 °F 31% 30.04 in 10.0 mi Variable 5.8 mph - N/A   Clear
1:53 PM 90.0 °F 87.5 °F 53.1 °F 28% 30.02 in 10.0 mi SE 6.9 mph - N/A   Mostly Cloudy
2:53 PM 91.0 °F - 52.0 °F 26% 30.00 in 10.0 mi ESE 8.1 mph - N/A   Scattered Clouds
3:53 PM 91.0 °F - 50.0 °F 24% 29.98 in 10.0 mi SE 8.1 mph - N/A   Clear
4:53 PM 91.9 °F - 50.0 °F 24% 29.97 in 10.0 mi SSE 9.2 mph 19.6 mph N/A   Clear
5:53 PM 91.9 °F - 50.0 °F 24% 29.97 in 10.0 mi South 10.4 mph - N/A   Partly Cloudy
6:53 PM 90.0 °F - 50.0 °F 25% 29.96 in 10.0 mi South 6.9 mph - N/A   Clear
7:53 PM 88.0 °F - 50.0 °F 27% 29.96 in 10.0 mi SSE 6.9 mph - N/A   Clear
8:53 PM 84.0 °F - 52.0 °F 33% 29.96 in 10.0 mi South 5.8 mph - N/A   Clear
9:53 PM 80.1 °F 79.9 °F 53.1 °F 39% 29.98 in 10.0 mi South 4.6 mph - N/A   Clear
10:53 PM 78.1 °F - 53.1 °F 42% 29.98 in 10.0 mi South 4.6 mph - N/A   Clear
11:53 PM 78.1 °F - 54.0 °F 43% 29.97 in 10.0 mi SSE 4.6 mph - N/A   Clear